Location: Fort Hays State University
(38.8712°N, 99.3432°W)
Time: 17:19:21
(UTC-05:00)

Cosmos 2279 Rocket - Visible Passes

Search period start: 25 September 2017 00:00
Search period end: 05 October 2017 00:00
Orbit: 963 x 980 km, 82.9° (Epoch: 24 September)

Date Brightness Start Highest point End Pass type
(mag) Time Alt. Az. Time Alt. Az. Time Alt. Az.
25 Sep 5.1 04:10:37 38° NNE 04:10:37 38° NNE 04:14:21 10° NNE visible
25 Sep 5.6 05:55:15 16° NW 05:55:15 16° NW 05:57:52 10° NNW visible
26 Sep 6.6 02:50:36 13° NE 02:50:36 13° NE 02:51:34 10° NE visible
26 Sep 5.1 04:35:13 34° N 04:35:13 34° N 04:38:39 10° N visible
27 Sep 6.2 03:15:10 19° NE 03:15:10 19° NE 03:17:05 10° NNE visible
27 Sep 5.4 04:59:47 24° NNW 04:59:47 24° NNW 05:02:36 10° N visible
28 Sep 5.9 03:39:42 23° NNE 03:39:42 23° NNE 03:41:54 10° NNE visible
28 Sep 5.8 05:24:19 16° NW 05:24:19 16° NW 05:26:03 10° NNW visible
29 Sep 5.8 04:04:13 23° N 04:04:13 23° N 04:06:19 10° N visible
30 Sep 6.7 02:44:06 11° NE 02:44:06 11° NE 02:44:23 10° NNE visible
30 Sep 5.9 04:28:42 19° NNW 04:28:42 19° NNW 04:30:25 10° N visible
01 Oct 6.5 03:08:34 14° NNE 03:08:34 14° NNE 03:09:23 10° NNE visible
01 Oct 6.1 04:53:11 14° NNW 04:53:11 14° NNW 04:54:06 10° NNW visible
02 Oct 6.4 03:33:00 15° N 03:33:00 15° N 03:33:56 10° N visible
03 Oct 6.3 03:57:26 14° N 03:57:26 14° N 03:58:10 10° N visible
04 Oct 6.4 04:21:51 11° NNW 04:21:51 11° NNW 04:22:01 10° NNW visible
